User: anonymous   Login
Location: Unspecified
(0.0000°N, 0.0000°E)
Time: 20:52:14
(UTC+00:00)
Language:

PLEIADES 1B - Orbit

View from above orbital plane
View from above orbital plane
View from above satellite
View from above satellite

Ground track
Ground track

The orbit data is extracted from the following two-line orbital elements,

1 39019U 12068A   17176.26684587 +.00000003 +00000-0 +10421-4 0  9992
2 39019 098.2010 251.3629 0001277 077.0419 283.0932 14.58556506242894
Epoch (UTC): 25 June 2017 06:24:15
Eccentricity: 0.0001277
inclination: 98.2010°
perigee height: 697 km
apogee height: 699 km
right ascension of ascending node: 251.3629°
argument of perigee: 77.0419°
revolutions per day: 14.58556506
mean anomaly at epoch: 283.0932°
orbit number at epoch: 24289

The dashed part of the orbit path shows where the satellite is in the earth's shadow,  

DLR